ELECTRON KICK STAGE R/B, 63359

Orbit data source: Space-Track

ELECTRON KICK STAGE R/B, 63359 is space debris in SSO originally from a launch on Wed, 26 Mar 2025 UTC launched from the Rocket Lab Launch Complex (RLLC). Debris objects in space refer to the collection of defunct objects orbiting the Earth. Examples of debris include non-operational satellites, rocket bodies, and fragments generated from explosions, collisions, or faulty payload assembly.

Loading next visibility...
Identifier
63359, 2025-061J
Orbit
SSO
Country
Flag of USUS
Related business
Manufacturer
Rocket Lab
Mission
Spacecraft
Bus & Motor
KICK STAGE, CURIE
Mass
~50 kg wet, ~50 kg dry
Launch date (UTC)
2025-03-26 (1 year ago)
Launch vehicle
Unknown
Launch site
Rocket Lab Launch Complex (RLLC)
Object type
Payload
Rocket body
Debris
Shape & HBR
Cyl, 1.3 m
Radar Cross Section
2.827 m², Large (>1 m²)

Expand to show TLE details & history
Last TLE update: 8 hours ago

TLE from 8 hours ago
0 ELECTRON KICK STAGE R/B
1 63359U 25061J   26265.24242428  .00012144  00000-0  31856-3 0  9997
2 63359  97.5609 253.5507 0034040 169.7045 190.4904 15.38208192 83180
Epoch: 2026-09-22T05:49Z
TLE epoch observation values (Epoch: 2026-09-22T05:49:05.457Z)
Latitude
-0.00008°
Longitude
165.16726°
Altitude
477.385 km
Speed
7.614 km/s
True Right ascension
16h 54m 12s
True Declination
0° 00' 00"
Sunlit
Object was in daylight at epoch
Visualization orbit readout
Latitude
Unknown
Longitude
Unknown
Altitude
Unknown
Speed
Unknown
Apparent Right ascension
Unknown
Apparent Declination
Unknown
Sunlit
N/A
Visualization observer readout
Local Sidereal Time
06:48:55
Azimuth
Unknown
Elevation
Unknown
Doppler factor
Unknown
Orbital elements
Apogee altitude
471.594 km
Perigee altitude
425.119 km
Semi-major axis
6,826.493 km
Eccentricity
0.0034
Inclination
97.5609°
RAAN
253.5507°
Arg. of periapsis
169.7045°
True anomaly
190.41968°
Mean anomaly
190.4904°
Eccentric anomaly
190.45501°
Mean motion
3.8481 °/min
Orbital period
93.55 mins
BSTAR
0.00031856
Loading maneuver chart data...
Computing Atmospheric mass density...
Loading historical data...
Loading historical data...
Loading historical data...
Loading historical data...
Loading historical data...
Loading historical data...
Loading historical data...

Documentation

Showing up to 5 results
|